Location: Unspecified
(50.1700°N, 6.8600°E)
Time: 12:12:20
(UTC+00:00)

Cosmos 1892 - Pass Details

Date: 24 January 2019
Orbit: 504 x 527 km, 82.5° (Epoch: 19 April)

Event Time Altitude Azimuth Distance (km) Brightness Sun altitude
Rises 06:07:09 0° 354° (N) 2,639 6.1 -11.2°
Reaches altitude 10° 06:09:21 10° 360° (N) 1,751 5.2 -10.8°
Maximum altitude 06:13:05 49° 76° (ENE) 674 3.7 -10.3°
Drops below altitude 10° 06:16:49 10° 152° (SSE) 1,750 6.1 -9.7°
Sets 06:19:00 0° 158° (SSE) 2,637 6.9 -9.4°
